#timestamp,LO_Frequency,Hit,StdDev 
1652691615.3,286046985.4,N
1652691635.1,286046989.7,N
1652691655.9,286046986.9,N
1652691675.7,286046985.9,N
1652691695.5,286046982.9,N
1652691715.4,286046981.0,N
1652691735.2,286046980.9,N
1652691755.0,286046984.0,N
1652691755.9,286046984.0,N
1652691775.8,286046979.1,N
1652691795.6,286046977.3,N
1652691815.4,286046980.5,N
1652691835.3,286046988.9,N
1652691855.1,286046999.7,N
1652691856.0,286046999.7,N
1652691875.8,286047003.2,N
1652691895.7,286047005.7,N
1652691915.5,286047003.8,N
1652691935.3,286046999.1,N
1652691955.2,286046995.9,N
1652691975.9,286046995.0,N
1652691995.7,286046994.3,N
1652692015.6,286046993.2,N
1652692035.4,286046987.9,N
1652692055.2,286046986.5,N
1652692075.1,286046989.5,N
1652692076.0,286046989.5,N
1652692095.8,286046991.6,N
1652692115.6,286046991.0,N
1652692135.5,286046993.8,N
1652692155.3,286046989.2,N
1652692175.1,286046987.8,N
1652692195.9,286046986.7,N
1652692215.7,286046986.2,N
1652692235.5,286046989.0,N
1652692255.4,286046987.1,N
1652692275.2,286046986.2,N
1652692295.0,286046982.4,N
1652692295.9,286046982.4,N
1652692315.8,286046982.2,N
1652692335.6,286046982.1,N
1652692355.4,286046982.8,N
1652692375.3,286046983.2,N
1652692395.1,286046980.6,N
1652692396.0,286046980.6,N
1652692415.8,286046981.6,N
1652692435.7,286046982.5,N
1652692455.5,286046978.0,Y
1652692475.3,286046987.7,P
1652692495.2,286046985.4,P
1652692515.9,286046987.2,P
1652692535.7,286046988.1,Y
1652692555.6,286047003.7,P
1652692575.4,286047007.4,N
1652692595.2,286047011.6,N
1652692615.1,286047010.1,N
1652692616.0,286047010.1,N
1652692635.8,286047009.2,N
1652692655.6,286047005.7,N
1652692675.5,286047000.7,N
1652692695.3,286046996.5,N
1652692715.1,286047000.9,N
1652692735.9,286046996.5,N
1652692755.7,286047019.6,N
1652692775.5,286047050.5,Y
1652692795.4,286047049.3,P
1652692815.2,286047049.6,N
1652692835.0,286047047.3,N
1652692835.9,286047047.3,N
1652692855.8,286047038.6,N
1652692875.6,286047036.4,N
1652692895.4,286047032.4,N
1652692915.3,286047032.0,N
1652692935.1,286047035.9,N
1652692936.0,286047035.9,N
1652692955.8,286047035.2,N
1652692975.7,286047034.9,N
1652692995.5,286047032.4,N
1652693015.3,286047027.8,N
1652693035.2,286047026.4,N
1652693055.9,286047023.5,N
1652693075.7,286047018.7,N
1652693095.6,286047012.2,N
1652693115.4,286047015.9,N
1652693135.2,286047022.4,N
1652693155.1,286047018.4,N
1652693156.0,286047018.4,N
1652693175.8,286047011.8,N
1652693195.6,286047009.6,N
1652693215.5,286047011.2,N
1652693235.3,286047008.9,N
1652693255.1,286047006.7,N
1652693275.9,286047011.6,N
1652693295.7,286047011.4,N
1652693315.5,286047008.3,N
1652693335.4,286047006.6,N
1652693355.2,286047004.6,N
1652693375.0,286047001.8,N
1652693375.9,286047001.8,N
1652693395.8,286047005.8,N
1652693415.6,286047005.9,N
1652693435.4,286047003.5,N
1652693455.3,286047001.3,N
1652693475.1,286047000.1,N
1652693476.0,286047000.1,N
1652693495.8,286046998.2,N
1652693515.7,286047000.6,N
1652693535.5,286046996.5,N
1652693555.3,286047001.0,N
1652693575.2,286046996.9,N
1652693595.9,286046995.2,N
1652693615.7,286046997.9,N
1652693635.6,286046993.6,N
1652693655.4,286046993.0,N
1652693675.2,286046991.0,N
1652693695.1,286046991.5,N
1652693696.0,286046991.5,N
1652693715.8,286046986.8,N
1652693735.6,286046986.8,N
1652693755.5,286046983.5,N
1652693775.3,286046982.6,N
1652693795.1,286046984.9,N
1652693815.9,286046982.9,N
1652693835.7,286046979.5,N
1652693855.5,286046977.6,N
1652693875.4,286046975.8,N
1652693895.2,286046976.7,N
1652693915.0,286046973.2,N
1652693915.9,286046973.2,N
1652693935.8,286046972.2,N
1652693955.6,286046972.4,N
1652693975.4,286046971.4,N
1652693995.3,286046975.2,N
1652694015.1,286046973.8,N
1652694035.8,286046973.8,N
1652694055.7,286046971.5,N
1652694075.5,286046975.3,N
1652694095.3,286046978.7,N
1652694115.2,286046978.4,N
1652694135.9,286046978.2,N
1652694155.7,286046978.1,N
1652694175.6,286046980.6,N
1652694195.4,286046979.3,Y
1652694215.2,286047000.9,P
1652694235.1,286047001.0,N
1652694236.0,286047001.0,N
1652694255.8,286047000.3,N
1652694275.6,286046999.9,N
1652694295.5,286046997.1,N
1652694315.3,286046995.8,N
1652694335.1,286046994.9,N
1652694355.9,286046993.6,N
1652694375.7,286046996.4,N
1652694395.5,286046994.2,N
1652694415.4,286046992.8,N
1652694435.2,286046990.8,N
1652694455.0,286046990.1,N
1652694455.9,286046990.1,N
1652694475.8,286046990.6,N
1652694495.6,286046990.5,N
1652694515.4,286046989.6,N
1652694535.3,286046987.5,N
1652694555.1,286046988.3,N
1652694575.9,286046984.5,N
1652694595.7,286046985.1,N
1652694615.5,286046986.8,N
1652694635.4,286046988.3,N
1652694655.2,286046987.4,N
1652694675.0,286046989.8,N
1652694675.9,286046989.8,N
1652694695.8,286046989.9,N
1652694715.6,286046991.0,N
1652694735.4,286046989.0,N
1652694755.3,286046985.3,Y
1652694775.1,286046990.0,P
1652694776.0,286046990.0,P
1652694795.8,286046984.8,P
1652694815.7,286046981.0,Y
1652694835.5,286046994.4,P
1652694855.3,286046993.9,N
1652694875.2,286046992.8,P
1652694895.9,286046992.6,Y
1652694915.7,286047002.5,P
1652694935.6,286047003.9,N
1652694955.4,286047002.4,N
1652694975.2,286047002.3,N
1652694995.1,286047003.3,N
1652694996.0,286047003.3,N
1652695015.8,286047005.9,N
1652695035.6,286047002.3,N
1652695055.5,286047001.9,N
1652695075.3,286047002.4,N
1652695095.1,286047003.1,N
1652695115.9,286047005.8,N
1652695135.7,286047003.4,N
1652695155.5,286047002.3,N
1652695175.4,286047001.1,N
1652695195.2,286047004.1,N
